Dewpoint
50 50 51 51 52 52 52 52 53 52 52 52 53 53 53 53 52 39 27 33 39 52 50 32 38 36 34 27 23 21 19 18 17 15 13 19 20 21 19 25 25 33 37 48 54
50 50 50 51 53 53 53 53 53 53 52 53 53 53 53 53 44 35 47 60 60 57 30 23 34 35 32 27 24 20 21 18 17 15 12 14 19 19 17 23 27 27 37 51 53
50 51 50 51 52 52 53 53 53 53 53 53 53 53 53 51 38 26 53 57 59 59 43 21 30 33 32 26 22 20 19 19 16 16 14 14 16 18 18 20 25 37 34 51 52
50 51 52 52 51 52 53 53 53 53 53 53 52 52 53 45 24 30 52 53 57 50 39 27 30 28 28 25 22 18 18 19 17 16 14 14 17 17 19 23 25 34 37 40 48
50 51 51 51 51 51 52 53 53 53 53 51 51 51 46 27 29 30 48 47 47 43 34 32 32 27 26 25 22 18 17 17 17 16 14 14 17 19 20 22 26 36 41 43 45
51 51 51 50 50 51 52 52 52 52 52 52 51 51 43 31 28 27 24 24 14 35 36 33 28 26 25 22 20 18 16 15 15 16 16 13 15 19 21 21 24 36 41 44 46
49 50 50 50 50 51 52 52 52 52 52 52 51 47 40 31 26 26 24 30 28 14 13 16 27 32 27 23 21 18 15 15 17 18 16 17 15 17 20 20 22 33 39 44 47
48 49 50 50 51 51 51 51 51 52 52 52 52 46 37 30 27 22 23 23 26 31 23 17 21 30 30 28 23 18 20 17 17 17 17 17 18 17 19 21 24 31 38 43 45
48 48 49 50 51 51 51 51 51 52 52 52 48 44 33 35 26 23 20 28 30 35 29 20 18 26 28 28 25 22 18 19 17 18 17 17 19 18 19 27 29 29 35 42 45
47 46 48 49 50 50 50 50 49 50 47 44 43 37 38 24 26 28 32 28 31 36 30 28 18 20 26 25 20 19 19 20 19 18 20 17 17 19 23 27 32 30 30 39 44
46 45 47 49 50 50 47 43 33 38 37 33 27 34 29 26 27 26 37 32 37 39 31 28 16 14 24 25 24 22 19 19 20 20 19 20 17 16 18 21 28 30 33 35 43
45 45 46 48 49 49 46 38 35 38 35 34 32 30 29 29 25 25 35 35 36 39 38 34 20 11 16 23 23 23 22 21 20 19 17 16 16 16 15 19 22 25 33 36 40
44 45 46 48 48 46 41 38 37 41 35 31 25 24 26 29 26 23 23 34 31 32 39 35 25 20 17 15 18 20 22 21 19 19 18 17 18 18 14 16 19 25 27 34 38
43 45 47 48 43 39 37 37 41 45 31 28 25 27 31 27 26 24 22 26 26 32 37 38 37 29 29 20 19 20 20 18 19 19 17 18 16 17 16 16 17 22 29 32 34
44 44 46 45 39 34 40 39 43 44 23 10 21 28 27 25 25 20 21 23 25 30 37 37 33 33 28 25 24 22 25 23 22 21 22 18 17 17 17 16 17 23 28 31 34
44 43 45 38 40 40 42 43 44 34 24 11 16 20 18 21 25 21 26 21 17 19 33 31 32 34 26 21 23 23 23 24 24 24 21 20 19 18 17 17 18 20 24 29 33
43 43 41 37 34 40 44 41 35 25 11 10 15 15 14 13 19 23 26 24 17 17 19 23 25 23 29 27 24 23 23 20 21 22 23 21 19 22 22 19 21 22 23 30 36
44 44 40 35 36 43 42 36 24 14 12 14 14 14 11 15 20 22 24 23 22 18 19 25 23 21 25 26 23 24 24 22 21 25 20 20 18 19 22 20 23 23 27 31 34
44 38 37 39 42 42 36 30 17 16 10 11 14 5 3 12 17 19 22 24 23 21 21 24 21 21 25 28 24 25 27 23 25 25 26 26 21 20 21 22 20 21 23 30 31
38 35 32 41 46 40 34 25 22 17 13 18 11 4 10 12 16 16 27 32 29 23 24 21 21 21 19 24 26 26 26 25 24 21 23 24 22 20 24 23 22 24 26 29 32
39 31 33 43 43 39 28 25 22 21 16 19 17 10 14 15 17 18 20 32 31 30 32 22 23 23 22 20 23 24 25 28 28 23 25 26 27 32 30 30 30 31 32 34 35
38 31 37 42 35 33 30 28 27 20 18 16 21 20 20 20 19 19 19 21 27 30 32 35 26 23 25 26 23 23 24 25 28 28 27 30 26 33 34 29 31 31 31 32 34
35 28 35 44 31 29 26 24 23 21 19 18 19 19 19 18 17 19 20 24 25 25 30 31 27 24 22 26 28 24 25 25 28 34 35 32 30 31 28 28 29 30 32 32 33
36 31 28 39 32 29 27 24 23 21 19 20 18 19 17 18 20 20 20 22 24 23 38 32 34 29 23 28 34 31 26 30 30 34 35 35 33 34 34 30 27 29 28 26 28
36 31 29 30 28 28 27 31 24 20 23 20 20 18 17 19 17 18 19 19 22 32 30 35 35 32 30 30 28 28 29 27 28 34 33 30 29 34 36 36 27 25 25 24 27
32 30 25 23 29 30 27 26 23 26 23 22 19 17 19 17 19 18 22 29 24 28 26 36 32 33 31 30 25 23 28 35 34 24 25 30 33 32 31 23 24 25 25 28 33
39 34 35 29 28 24 28 24 19 21 25 30 26 25 20 25 32 32 31 35 34 32 29 30 31 33 28 28 26 24 23 28 30 22 22 22 23 26 22 21 23 29 30 36 37
Lifted_Index
15 14 14 14 14 14 14 14 14 15 15 15 14 15 15 15 14 13 12 11 9 8 8 7 6 5 5 5 5 5 5 4 4 2 0 0 2 3 4 4 4 3 2 -0 -1
14 14 14 14 14 13 13 14 14 14 14 14 14 14 14 14 14 12 11 9 7 6 7 7 5 4 4 5 5 5 5 4 3 2 0 0 2 3 4 4 4 3 2 -0 -1
14 14 14 14 14 13 13 13 14 14 14 14 14 14 14 13 12 10 10 8 6 5 6 6 5 4 4 4 4 4 4 4 3 2 1 1 2 3 4 4 4 3 2 -0 -1
14 14 14 14 14 13 13 13 13 13 13 13 13 14 13 12 10 9 10 8 6 4 5 5 4 3 3 4 4 4 4 4 3 3 2 3 3 3 4 4 3 3 2 0 -1
13 13 13 13 13 13 13 13 13 13 13 13 13 13 12 10 9 9 9 9 6 5 4 4 3 3 3 3 3 4 4 3 3 3 3 3 4 4 4 4 3 3 1 0 -0
13 13 13 13 13 13 13 12 12 12 12 13 13 12 11 9 9 9 9 9 8 6 4 3 3 3 3 3 4 4 4 3 3 3 3 4 4 4 4 4 4 2 1 -0 -1
12 12 12 12 12 12 12 12 12 12 12 12 11 11 9 9 9 9 9 9 8 8 6 4 3 3 3 4 4 4 4 4 3 3 3 4 4 4 4 4 4 2 1 -0 -1
12 12 12 12 12 11 11 11 11 11 11 10 10 9 9 9 9 10 9 8 8 8 7 6 4 3 3 4 4 4 4 3 3 3 3 3 4 4 4 4 3 2 1 0 -0
12 12 12 12 11 11 11 10 10 10 9 9 8 8 8 8 9 9 9 8 7 6 7 7 6 4 4 4 4 4 3 3 3 2 2 3 3 3 3 3 3 2 2 1 -0
12 12 12 11 11 11 10 9 9 8 8 7 7 7 7 8 8 8 8 7 6 6 5 6 6 4 4 3 3 2 2 2 1 1 1 2 2 3 3 3 2 2 2 1 0
12 12 12 11 11 10 9 8 8 7 6 6 7 7 7 8 8 8 7 6 5 5 4 5 5 5 4 3 3 2 1 1 1 0 0 1 2 3 3 3 2 2 2 1 0
12 12 12 11 10 9 8 7 7 7 6 7 7 7 7 8 8 8 7 5 5 4 4 5 5 5 4 3 3 2 1 1 1 0 1 1 2 3 3 3 3 2 2 1 1
12 12 11 10 10 8 7 7 7 6 6 6 6 6 7 7 8 8 7 6 5 4 4 4 5 5 5 4 3 3 2 2 1 1 1 1 2 2 3 3 3 2 2 1 1
11 11 11 10 9 8 7 6 6 5 4 4 5 5 6 6 7 8 7 6 5 4 4 4 4 4 4 4 4 3 2 2 1 1 1 1 2 2 2 2 2 2 2 2 1
11 11 10 10 9 8 7 6 5 4 3 4 4 5 5 5 6 7 7 7 6 5 4 4 4 4 4 4 4 3 2 2 1 1 1 2 2 2 1 1 1 1 2 2 2
11 10 10 10 9 7 6 5 4 3 2 3 4 4 4 5 5 6 6 7 6 5 4 4 4 4 4 4 4 3 2 2 1 1 2 2 2 2 1 1 0 1 1 2 2
10 10 10 10 9 7 6 5 3 2 2 3 4 4 4 4 4 4 5 6 6 5 4 4 4 4 4 4 4 4 3 2 1 1 1 2 2 2 2 1 1 1 1 1 1
10 10 10 9 8 7 6 4 3 2 3 3 4 4 4 4 3 3 4 4 5 5 4 3 3 4 4 3 4 4 3 2 1 0 1 1 2 2 1 1 1 1 1 1 1
9 9 8 7 6 6 5 4 3 3 3 3 4 4 4 3 3 3 3 3 4 4 4 3 3 3 3 3 3 3 3 2 1 0 0 1 1 1 1 1 1 1 1 1 1
8 7 7 5 4 4 5 5 4 3 3 3 4 4 3 3 3 2 2 1 2 3 4 3 3 3 2 2 3 3 3 2 1 1 0 -0 0 0 1 1 1 1 1 1 1
6 5 4 3 3 4 5 5 4 3 3 3 3 3 3 3 3 2 2 1 2 3 3 3 3 2 2 2 2 2 2 2 2 1 0 0 0 0 1 1 1 0 1 0 0
5 4 3 2 2 3 4 4 4 3 3 3 3 3 3 3 3 3 2 2 3 3 2 2 2 2 2 1 1 2 2 2 1 1 0 -0 -0 0 1 1 1 1 1 1 1
4 4 2 1 1 2 3 3 3 3 3 3 3 3 3 3 3 3 3 3 3 3 2 2 2 2 1 0 0 1 1 1 1 1 0 -0 -0 0 1 1 1 1 1 1 1
4 3 2 1 1 1 2 2 3 3 3 3 3 3 3 3 3 3 3 3 3 4 3 2 1 1 1 1 0 1 1 1 1 1 0 0 0 0 1 1 2 2 2 2 2
4 3 2 1 1 1 1 1 1 2 2 2 2 2 2 2 2 2 2 3 3 3 3 2 1 1 1 1 1 1 0 0 0 0 0 0 0 1 1 1 2 2 3 3 3
3 3 2 1 1 1 1 1 1 1 1 1 1 2 2 2 1 2 2 2 3 3 3 2 1 1 1 1 1 1 1 1 0 0 -0 -0 0 1 1 1 2 2 2 2 2
3 3 2 1 1 0 0 1 1 0 0 0 1 1 1 1 1 1 2 2 3 3 3 2 2 1 1 0 1 1 1 1 1 -0 -0 -0 0 1 1 1 2 2 2 1 1